Salida, CO

3:53 AM MST on February 25, 2017 (GMT -0700)
Salida

Weather History for KANK - January, 2013

Change the Weather History Date:

Tuesday, January 1, 2013

  Actual Average (KGUC) Record (KGUC)
Temperature  
Mean Temperature 14 °F -  
Max Temperature 26 °F 24 °F 37 °F (1999)
Min Temperature 3 °F 0 °F -27 °F (2008)
Degree Days  
Heating Degree Days 50    
Moisture  
Dew Point 2 °F    
Average Humidity 64    
Maximum Humidity 90    
Minimum Humidity 35    
Precipitation  
Precipitation 0.00 in - - ()
Sea Level Pressure  
Sea Level Pressure 30.11 in    
Wind  
Wind Speed 4 mph (WNW)    
Max Wind Speed 15 mph    
Max Gust Speed 21 mph    
Visibility 10 miles    
Events      
Averages and records for this station are not official NWS values.
T = Trace of Precipitation, MM = Missing Value Source: NWS Daily Summary

Daily Weather History Graph

Daily Weather History Graph

Search for Another Location

Airport or City:

Trip Planner

Search our weather history database for the weather conditions in past years. The results will help you decide how hot, cold, wet, or windy it might be!

Date:

Astronomy

Jan. 01, 2013 Rise Set
Actual Time 7:21 AM MST 4:54 PM MST
Civil Twilight 6:52 AM MST 5:23 PM MST
Nautical Twilight 6:19 AM MST 5:57 PM MST
Astronomical Twilight 5:46 AM MST 6:29 PM MST
Moon 9:24 PM MST (1/1) 9:38 AM MST (1/1)
Length of Visible Light 10h 31m
Length of Day
9h 32m
Waning Gibbous, 83% of the Moon is Illuminated
Jan 1
Waning Gibbous
Jan 4
Last Quarter
Jan 11
New
Jan 18
First Quarter
Jan 26
Full

Hourly Weather History & Observations

Time (MST) Temp. Windchill Dew Point Humidity Pressure Visibility Wind Dir Wind Speed Gust Speed Precip Events Conditions
12:15 AM 9.3 °F - 6.1 °F 87% 30.02 in 10.0 mi Calm Calm - N/A   Mostly Cloudy
12:35 AM 9.5 °F - 6.4 °F 87% 30.02 in 10.0 mi Calm Calm - N/A   Mostly Cloudy
12:55 AM 10.2 °F - 7.5 °F 89% 30.02 in 10.0 mi Calm Calm - N/A   Mostly Cloudy
1:15 AM 7.5 °F - 5.2 °F 90% 30.02 in 10.0 mi Calm Calm - N/A   Scattered Clouds
1:35 AM 5.2 °F - 2.5 °F 89% 30.03 in 10.0 mi Calm Calm - N/A   Clear
1:55 AM 4.8 °F - 1.6 °F 86% 30.03 in 10.0 mi Calm Calm - N/A   Scattered Clouds
2:15 AM 3.7 °F -3.6 °F 0.7 °F 87% 30.04 in 10.0 mi West 3.5 mph - N/A   Scattered Clouds
2:35 AM 5.9 °F -1.1 °F 2.7 °F 87% 30.05 in 10.0 mi West 3.5 mph - N/A   Mostly Cloudy
2:55 AM 6.1 °F -5.6 °F 1.6 °F 82% 30.05 in 10.0 mi West 6.9 mph - N/A   Scattered Clouds
3:15 AM 7.7 °F -2.4 °F 4.1 °F 85% 30.05 in 10.0 mi NW 5.8 mph - N/A   Scattered Clouds
3:35 AM 8.1 °F 1.4 °F 3.9 °F 83% 30.05 in 10.0 mi NW 3.5 mph - N/A   Clear
3:55 AM 7.0 °F 0.1 °F 3.4 °F 85% 30.06 in 10.0 mi WNW 3.5 mph - N/A   Clear
4:15 AM 7.9 °F -3.5 °F 3.7 °F 83% 30.06 in 10.0 mi NW 6.9 mph - N/A   Clear
4:35 AM 7.7 °F -2.4 °F 3.2 °F 82% 30.06 in 10.0 mi NW 5.8 mph - N/A   Clear
4:55 AM 3.4 °F -5.9 °F -1.1 °F 82% 30.07 in 10.0 mi NW 4.6 mph - N/A   Clear
5:15 AM 6.1 °F -5.6 °F 1.0 °F 80% 30.07 in 10.0 mi NW 6.9 mph - N/A   Clear
5:35 AM 6.4 °F -2.4 °F 0.9 °F 78% 30.08 in 10.0 mi NW 4.6 mph - N/A   Clear
5:55 AM 5.9 °F - 0.3 °F 78% 30.09 in 10.0 mi Calm Calm - N/A   Clear
6:15 AM 5.2 °F -6.7 °F -0.8 °F 76% 30.09 in 10.0 mi NNW 6.9 mph - N/A   Clear
6:35 AM 5.2 °F -7.9 °F -0.8 °F 76% 30.10 in 10.0 mi NW 8.1 mph - N/A   Clear
6:55 AM 4.8 °F -2.3 °F -0.4 °F 79% 30.10 in 10.0 mi NNW 3.5 mph - N/A   Clear
7:15 AM 4.5 °F -6.3 °F -0.8 °F 79% 30.11 in 10.0 mi NW 5.8 mph - N/A   Clear
7:35 AM 4.8 °F - -0.9 °F 77% 30.11 in 10.0 mi Calm Calm - N/A   Clear
7:55 AM 4.8 °F - -0.6 °F 78% 30.12 in 10.0 mi Calm Calm - N/A   Clear
8:15 AM 5.5 °F - -0.0 °F 78% 30.13 in 10.0 mi Calm Calm - N/A   Clear
8:35 AM 5.9 °F - 0.1 °F 77% 30.13 in 10.0 mi Calm Calm - N/A   Scattered Clouds
8:55 AM 6.8 °F - 1.4 °F 79% 30.14 in 10.0 mi Calm Calm - N/A   Scattered Clouds
9:15 AM 8.2 °F -0.3 °F 3.2 °F 80% 30.15 in 10.0 mi North 4.6 mph - N/A   Mostly Cloudy
9:35 AM 8.1 °F - 3.4 °F 81% 30.15 in 10.0 mi Calm Calm - N/A   Overcast
9:55 AM 10.4 °F - 4.8 °F 78% 30.15 in 10.0 mi Calm Calm - N/A   Overcast
10:15 AM 12.2 °F 6.1 °F 5.2 °F 73% 30.15 in 10.0 mi North 3.5 mph - N/A   Overcast
10:35 AM 12.0 °F - 4.5 °F 72% 30.15 in 10.0 mi Calm Calm - N/A   Overcast
10:55 AM 14.0 °F - 5.7 °F 70% 30.15 in 10.0 mi Calm Calm - N/A   Overcast
11:15 AM 16.0 °F 10.4 °F 5.5 °F 63% 30.14 in 10.0 mi NNW 3.5 mph - N/A   Mostly Cloudy
11:35 AM 17.4 °F 9.1 °F 6.4 °F 62% 30.13 in 10.0 mi NW 5.8 mph - N/A   Mostly Cloudy
11:55 AM 20.5 °F - 7.2 °F 56% 30.12 in 10.0 mi Calm Calm - N/A   Scattered Clouds
12:15 PM 21.0 °F - 6.3 °F 53% 30.11 in 10.0 mi Calm Calm - N/A   Clear
12:35 PM 22.3 °F - 5.9 °F 50% 30.10 in 10.0 mi Calm Calm - N/A   Clear
12:55 PM 23.9 °F 19.5 °F 6.1 °F 47% 30.09 in 10.0 mi North 3.5 mph - N/A   Clear
1:15 PM 24.1 °F - 6.6 °F 47% 30.08 in 10.0 mi Calm Calm - N/A   Clear
1:35 PM 25.5 °F 18.7 °F 6.4 °F 44% 30.07 in 10.0 mi SW 5.8 mph - N/A   Clear
1:55 PM 26.6 °F 18.2 °F 6.3 °F 42% 30.07 in 10.0 mi WSW 8.1 mph - N/A   Clear
2:15 PM 26.4 °F 18.0 °F 5.4 °F 41% 30.08 in 7.0 mi SW 8.1 mph - N/A   Scattered Clouds
2:35 PM 25.0 °F 17.1 °F 5.7 °F 44% 30.09 in 7.0 mi WSW 6.9 mph - N/A   Scattered Clouds
2:55 PM 25.2 °F 17.3 °F 4.5 °F 41% 30.09 in 10.0 mi WSW 6.9 mph - N/A   Clear
3:15 PM 25.2 °F 13.9 °F 1.9 °F 37% 30.09 in 10.0 mi West 12.7 mph 16.1 mph N/A   Clear
3:35 PM 24.8 °F 14.6 °F 1.4 °F 36% 30.09 in 10.0 mi West 10.4 mph 19.6 mph N/A   Clear
3:55 PM 24.3 °F 12.7 °F -0.0 °F 35% 30.10 in 10.0 mi WSW 12.7 mph 18.4 mph N/A   Clear
4:15 PM 23.0 °F 11.1 °F 0.3 °F 37% 30.10 in 10.0 mi WSW 12.7 mph - N/A   Clear
4:35 PM 21.2 °F 10.1 °F -0.0 °F 40% 30.11 in 10.0 mi WSW 10.4 mph - N/A   Clear
4:55 PM 19.6 °F 6.8 °F 0.5 °F 43% 30.11 in 10.0 mi WSW 12.7 mph - N/A   Clear
5:15 PM 18.9 °F 8.8 °F 0.3 °F 44% 30.12 in 10.0 mi West 8.1 mph - N/A   Clear
5:35 PM 19.2 °F 5.3 °F -0.6 °F 42% 30.13 in 10.0 mi West 15.0 mph 20.7 mph N/A   Clear
5:55 PM 18.5 °F 6.8 °F -0.4 °F 44% 30.13 in 10.0 mi West 10.4 mph - N/A   Clear
6:15 PM 17.6 °F 7.3 °F 0.1 °F 46% 30.13 in 10.0 mi West 8.1 mph 16.1 mph N/A   Clear
6:35 PM 16.9 °F 8.5 °F -0.4 °F 47% 30.12 in 10.0 mi West 5.8 mph - N/A   Clear
6:55 PM 13.8 °F 1.8 °F -0.2 °F 54% 30.12 in 10.0 mi WSW 9.2 mph - N/A   Clear
7:15 PM 15.6 °F 5.9 °F -0.6 °F 49% 30.13 in 10.0 mi NW 6.9 mph - N/A   Clear
7:35 PM 14.2 °F 0.0 °F -1.1 °F 51% 30.13 in 10.0 mi SW 12.7 mph - N/A   Clear
7:55 PM 15.4 °F 5.6 °F -0.4 °F 50% 30.14 in 10.0 mi WSW 6.9 mph - N/A   Clear
8:15 PM 13.8 °F 1.8 °F -0.4 °F 53% 30.15 in 10.0 mi West 9.2 mph - N/A   Clear
8:35 PM 13.1 °F 5.4 °F -1.3 °F 53% 30.17 in 10.0 mi West 4.6 mph - N/A   Clear
8:55 PM 12.0 °F 5.9 °F -1.5 °F 55% 30.17 in 10.0 mi West 3.5 mph - N/A   Clear
9:15 PM 10.9 °F 2.9 °F -1.7 °F 57% 30.17 in 10.0 mi WNW 4.6 mph - N/A   Clear
9:35 PM 9.3 °F -3.8 °F -1.8 °F 61% 30.18 in 10.0 mi WNW 9.2 mph - N/A   Clear
9:55 PM 10.9 °F 4.7 °F -0.8 °F 59% 30.19 in 10.0 mi WNW 3.5 mph - N/A   Clear
10:15 PM 10.6 °F -0.2 °F -1.3 °F 59% 30.17 in 10.0 mi WSW 6.9 mph - N/A   Clear
10:35 PM 8.6 °F -4.7 °F -2.9 °F 60% 30.19 in 10.0 mi West 9.2 mph - N/A   Clear
10:55 PM 7.5 °F -5.0 °F -3.3 °F 61% 30.19 in 10.0 mi West 8.1 mph - N/A   Clear
11:15 PM 8.1 °F 1.4 °F -2.4 °F 62% 30.19 in 10.0 mi WSW 3.5 mph - N/A   Clear
11:35 PM 8.4 °F -2.8 °F -3.1 °F 60% 30.20 in 10.0 mi West 6.9 mph - N/A   Clear
11:55 PM 7.9 °F -2.2 °F -3.5 °F 60% 30.19 in 10.0 mi WNW 5.8 mph - N/A   Clear